星链-5600 (STARLINK-5600 )

导读

STARLINK-5600是美国太空探索技术公司(SpaceX)星链互联网星座的一员,于2023年7月16日在美国发射入轨。它属于低轨通信卫星,旨在为全球提供高速低延迟互联网服务,尤其覆盖偏远地区与网络基础设施薄弱区域,依托大量组网卫星提升星链系统服务容量与覆盖范围。

Basic Information
目录编号:
57357
目录名称:
STARLINK-5600
国际标识:
2023-099AF
轨道中心:
EARTH
卫星名称:
星链-5600
卫星全名:
星链-5600 (STARLINK-5600 )
卫星状态:
在轨 (已飞行1156 天)
发射日期:
2023-07-16 UTC
国别 :
美国 (US)
星等 :
--
This satellite is enrolled in the Space Conjunction Data Service (SCDS) and the current flight risk assessment level is: No High Risk
Orbit Information
数据来源 国际轨道数据
星历时间: 2026-09-14T08:27:50+0800
18小时前
查看轨道信息
半长轴: 6861.18km
偏心率: 0.0001403
轨道倾角: 43.001°
近地点辐角 264.661°
升交点赤经 257.947°
平近点角 95.408°
近地点: 482.08km
远地点: 484.006km
周期: 94.267分钟
每日圈数: 15.275821
Detailed Information
固有亮度:
5
最大亮度:
2.5
卫星平台:
Starlink v1.5
覆盖范围:
全球
运营商:
太空探索技术公司
运营商所在国:
美国
制造商(研发单位):
太空探索技术公司
制造商所在国:
美国
使用方式:
暂无
Satellite Introduction
星链(Starlink)计划是由太空探索技术公司(SpaceX)提出的一个巨型低轨卫星互联网星座项目,计划在2019年至2024年间在太空搭建由约1.2万颗卫星组成的“星链”网络,其中1584颗将部署在地球上空550千米处的近地轨道,并从2020年开始工作。该卫星仍在工作。
2D Orbit Map
3D Orbit Map
Orbit Altitude Analysis Chart
Orbit Inclination Analysis Chart
Orbit Comprehensive Analysis Chart
View Comprehensive Chart
Conjunction Data List
Event ID Objects TCA Miss Dist (km) Collision Risk Probability Collision Risk Index (CRI) Action
CDM_260916-072604-282705-735723
OBJECT C (42827)
2026-09-16T
07:26:58+0000
1.186 km
极远距离
1.467134E-5 中风险 0.58
CDM_260917-022905-735706-712021
2026-09-17T
02:29:20+0000
1.492 km
极远距离
3.773011E-6 低风险 0.47
Miss Distance Evolution Trend with All Objects Subscribe to Flight Safety Assessment
Collision Probability Evolution Trend with All Objects Subscribe to Flight Safety Assessment